Location: Unspecified
(41.5000°N, 0.0000°E)
Time: 04:09:43
(UTC+00:00)

Vanguard 3 - Pass Details

Date: 26 June 2019
Orbit: 507 x 3264 km, 33.4° (Epoch: 20 July)

Event Time Altitude Azimuth Distance (km) Brightness Sun altitude
Rises 15:58:28 0° 270° (W) 4,399 11.8 38.2°
Reaches altitude 10° 16:03:48 10° 246° (WSW) 2,797 11.0 37.2°
Maximum altitude 16:06:27 13° 221° (SW) 2,312 10.2 36.7°
Drops below altitude 10° 16:08:42 10° 195° (SSW) 2,268 9.7 36.2°
Sets 16:12:04 0° 165° (SSE) 2,877 9.8 35.6°
